Regional Weather Roundup
Issued by NWS

Home | Current Version | Previous Version | Text Only | Print | Product List | Glossary On
Versions: 1 2 3 4 5 6 7 8 9 10 11 12 13 14 15 16 17 18 19 20 21 22 23 24 25 26 27 28 29 30 31 32 33 34 35 36 37 38 39 40 41 42 43 44 45 46 47 48 49 50
000
ASCA44 KEWX 211920
RWRMX

LATIN AMERICA AND CARIBBEAN REGIONAL WEATHER ROUNDUP
NATIONAL WEATHER SERVICE AUSTIN/SAN ANTONIO TX
200 PM CDT SAT APR 21 2018

NOTE: "FAIR" INDICATED FEW OR NO CLOUDS BELOW 12,000 FEET WITH NO
SIGNIFICANT WEATHER AND/OR OBSTRUCTIONS TO VISIBILITY.

BAJA CALIFORNIA

CITY           SKY/WX    TMP DP  RH WIND       PRES   REMARKS
LORETO         CLOUDY    75  63  64 NE14      29.94F
LA PAZ         PTSUNNY   75  43  31 N13       29.98F
MEXICALI       MOSUNNY   86  30  13 CALM      30.02F
S.J. DEL CABO  PTSUNNY   86  28  12 N7        29.94F
TIJUANA        PTSUNNY   77  48  36 CALM      30.05F

NORTHWESTERN MEXICO

CITY           SKY/WX    TMP DP  RH WIND       PRES   REMARKS
CULIACAN       PTSUNNY   90  45  20 SW12      29.89F
DURANGO        MOSUNNY   79  21  11 N7        30.16F
GUAYMAS        MOSUNNY   79  48  34 S17       29.88S
HERMOSILLO     PTSUNNY   90  16   6 NE6       29.95F
CD. JUAREZ     MOSUNNY   68  21  17 NW8       30.11F
LOS MOCHIS     PTSUNNY   82  46  28 W12       29.93F
OBREGON        PTSUNNY   88  28  11 S6        29.89F

NORTHEASTERN MEXICO

CITY           SKY/WX    TMP DP  RH WIND       PRES   REMARKS
CHIHUAHUA      MOSUNNY   73  23  15 N8        30.11F
MATAMOROS      CLOUDY    82  72  69 S16       29.90
MONCLOVA         N/A     82  61  47 NE14      29.94  FOG
MONTERREY      PTSUNNY   81  61  50 NW8       29.91F
NUEVO LAREDO   PTSUNNY   81  64  57 NW7       29.90F
PIEDRAS NEGRAS MOSUNNY   81  64  57 N9        29.95F
REYNOSA        CLOUDY    86  68  54 SE12      29.87F
SALTILLO       SUNNY     82  57  42 NE13      30.12F
TORREON        MOSUNNY   88  27  11 W6        30.00F
CD. VICTORIA   SUNNY     90  57  33 MISG      29.82F

WESTERN MEXICO

CITY           SKY/WX    TMP DP  RH WIND       PRES   REMARKS
AGUASCALIENTES PTSUNNY   84  21  10 SW10      30.19F
COLIMA         MOSUNNY   84  59  42 SW12      30.02F
DEL BAJIO      MOSUNNY   84  43  23 W7        30.22F
GUADALAJARA    SUNNY     86  37  17 SW10      30.13F
MAZATLAN       PTSUNNY   88  55  33 SW9       29.90F
ZACATECAS      MOSUNNY   82  27  13 W7        30.21F

CENTRAL MEXICO

CITY           SKY/WX    TMP DP  RH WIND       PRES   REMARKS
CUERNAVACA     SUNNY     86  50  28 E7        30.06F
MEXICO CITY    MOSUNNY   79  37  22 W6        30.27F
MORELIA        MOSUNNY   82  48  30 N8        30.18F
POZA RICA      PTSUNNY   86  68  54 S7        29.89F
PUEBLA         SUNNY     75  41  29 S9        30.27F
QUERETARO      MOSUNNY   82  48  30 W21       30.22F
TAMPICO        MOSUNNY   84  73  70 MISG      29.86F HX  91
TOLUCA         PTSUNNY   73  41  31 N9        30.34F

SOUTHERN MEXICO

CITY           SKY/WX    TMP DP  RH WIND       PRES   REMARKS
ACAPULCO       SUNNY     88  77  70 SW5       29.85F HX 100
B. DE HUATULCO MOSUNNY  N/A N/A N/A S12       29.87F
OAXACA         MOSUNNY   84  41  21 SW8       30.13F
P. ESCONDIDO   SUNNY     86  75  70 S10       29.95F HX  95
VERACRUZ       MOSUNNY   88  72  58 SE8       29.86  HX  94
ZIHUATANEJO    SUNNY     88  77  70 SW12      29.86F HX 100

YUCATAN PENINSULA

CITY           SKY/WX    TMP DP  RH WIND       PRES   REMARKS
CAMPECHE       MOSUNNY   93  66  40 SE12G23   29.87F HX  96
CANCUN         PTSUNNY   86  73  66 E12       30.00F HX  93
CHETUMAL       MOSUNNY   86  73  66 SE17      29.95F HX  93
CD. DEL CARMEN MOSUNNY   88  70  55 S9        29.90F HX  92
COZUMEL        PTSUNNY   88  72  58 SE9       29.98F HX  94
MERIDA         PTSUNNY   95  75  52 SE8       29.92F HX 107
MINATITLAN     MOSUNNY   84  77  79 N7        29.86F HX  94
TAPACHULA      MOSUNNY   95  72  46 W12       29.82F HX 103
TUX. GUTIERREZ SUNNY    N/A N/A N/A SE8       29.88F
VILLAHERMOSA   MOSUNNY   91  66  43 E13       29.89F HX  94

CENTRAL AMERICA

CITY           SKY/WX    TMP DP  RH WIND       PRES   REMARKS
BELIZE CITY    PTSUNNY   84  77  79 E10       29.94F HX  94
MANAGUA        PTCLDY    95  70  43 E16       29.77F HX 101

CARIBBEAN

CITY           SKY/WX    TMP DP  RH WIND       PRES   REMARKS
ARUBA          MOSUNNY   86  77  74 E22       29.86S HX  97
CURACAO          N/A     84  72  65 E15       29.89S
KINGSTON       PTSUNNY   84  75  74 SE22      29.89F THUNDER HX  92
NASSAU         PTSUNNY   81  72  74 NE9       30.08F
SAN JUAN       PTSUNNY   82  73  74 E20       30.00F
SANTO DOMINGO  MOSUNNY   86  73  66 SE7       29.94F HX  93
ST. KITTS      MOSUNNY   82  70  65 E16       30.00S
ST. MAARTEN    MOSUNNY   84  70  61 E14       30.00F
ST. THOMAS     MOSUNNY   86  72  62 E17       30.00  HX  92

$$





USA.gov is the U.S. government's official web portal to all federal, state and local government web resources and services.